Terminal Aerodrome Forecast
Issued by NWS Wilmington, OH

Current Version | Previous Version | Graphics & Text | Print | Product List | Glossary On
Versions: 1 2 3 4 5 6 7 8 9 10 11 12 13 14 15 16 17 18 19 20 21 22 23 24 25 26 27 28 29 30 31 32 33
000
FTUS41 KILN 232002 AAB
TAFCVG
TAF AMD
KCVG 232002Z 2320/2424 29016G24KT 1SM +RA BR FEW009 BKN024 OVC035
     FM240000 22004KT P6SM VCSH OVC025
     FM240400 32006KT P6SM BKN050
     FM240800 27005KT P6SM SCT250
     FM241400 28012G20KT P6SM SCT040=

USA.gov is the U.S. government's official web portal to all federal, state and local government web resources and services.